Location: Rooftop Observatory
(39.0308°N, 87.1711°W)
Time: 15:47:09
(UTC-05:00)

Daily predictions for brighter satellites

Satellite Brightness Start Highest point End
(mag) Time Altitude Azimuth Time Altitude Azimuth Time Altitude Azimuth
Cosmos 1697 Rocket 3.2 19:40:23 10° S 19:45:34 38° ESE 19:50:46 10° NE
Tiangong 1 1.7 19:43:07 10° WNW 19:46:09 48° N 19:49:10 10° E
Resurs 1-3 3.6 19:43:01 10° SSE 19:47:20 63° ENE 19:51:41 10° N
Cosmos 2123 Rocket 4.0 19:43:18 10° N 19:49:28 67° E 19:55:36 10° SSE
HJ-1C 3.6 19:50:10 10° S 19:53:26 74° WSW 19:56:45 10° NNW
Cosmos 1898 Rocket 4.1 19:50:54 10° N 19:55:53 40° ENE 20:00:47 10° SE
Cosmos 468 Rocket 4.1 19:59:16 10° S 20:04:11 50° ESE 20:09:09 10° NNE
BREEZE-M DEB (TANK) 4.0 20:02:59 10° SW 20:06:37 89° SE 20:19:02 10° ENE
Cosmos 1934 Rocket 4.4 20:01:28 10° SSW 20:07:35 68° W 20:13:50 10° N
DELTA 2 R/B (1) 3.9 20:04:15 10° W 20:09:44 59° SSW 20:14:35 13° SE
Cosmos 1980 Rocket 2.7 20:04:53 10° S 20:10:02 37° ESE 20:15:13 10° NE
Meteor 1-29 4.3 20:07:29 10° N 20:10:49 45° WNW 20:14:09 10° SSW
Helios 1A 4.1 20:09:21 10° S 20:13:22 47° W 20:17:26 10° NNW
RESURS DK-1 2.9 20:11:15 10° N 20:15:10 40° ENE 20:18:10 16° SE
Resurs 01 Rocket 2.8 20:12:20 10° S 20:16:34 45° W 20:20:51 10° NNW
Cosmos 1814 Rocket 4.1 20:12:52 10° S 20:18:05 58° ESE 20:23:17 10° NNE
H-2A R/B 2.8 20:14:17 10° SSE 20:18:09 66° ENE 20:22:04 10° N
FENGYUN 3A 3.6 20:14:52 10° SSE 20:20:13 81° ENE 20:25:35 10° N
Cosmos 1656 3.9 20:15:00 10° SSW 20:20:37 77° WNW 20:26:11 10° NNE
Cosmos 1153 Rocket 4.4 20:14:43 10° S 20:20:52 74° E 20:27:00 10° N
CZ-4B DEB 3.4 20:20:01 10° S 20:23:15 58° W 20:26:31 10° NNW
Cosmos 1447 Rocket 4.5 20:21:11 10° N 20:27:32 77° E 20:33:53 10° S
Cosmos 2263 Rocket 4.2 20:32:36 10° NNE 20:34:38 12° NE 20:36:35 10° ENE
Cosmos 858 Rocket 4.5 20:30:34 10° NNW 20:35:53 83° ENE 20:40:37 13° SSE
Iridium 4 Rocket 3.2 20:33:27 10° N 20:38:21 89° ESE 20:42:47 10° S
Lacrosse 5 1.8 20:33:40 10° NW 20:38:45 90° W 20:41:56 23° SE
Cosmos 1802 Rocket 4.2 20:32:48 10° SSE 20:38:55 51° E 20:45:06 10° NNE
Cosmos 1500 3.3 20:36:09 10° S 20:39:54 77° W 20:43:41 10° N
Cosmos 1825 Rocket 3.9 20:38:03 10° N 20:42:18 45° E 20:44:13 28° SE
Cosmos 2227 Rocket 3.9 20:37:27 10° NW 20:42:23 31° WSW 20:47:17 10° SSW
Cosmos 1975 4.1 20:39:39 10° SSW 20:43:35 43° W 20:47:31 10° N
Cosmos 2016 Rocket 4.2 20:37:58 10° SSE 20:43:43 45° E 20:49:33 10° NNE
CZ-2D R/B 4.1 20:40:29 10° S 20:44:15 51° W 20:48:03 10° NNW
Cosmos 2322 Rocket 3.0 20:43:34 24° SE 20:44:55 27° ESE 20:49:34 10° NE
SJ-11-01 4.4 20:43:53 23° SE 20:46:37 57° ENE 20:51:12 10° N
Cosmos 1340 3.1 20:43:08 10° N 20:46:46 42° ENE 20:47:32 37° ESE
Lacrosse 5 rocket 3.7 20:45:23 10° W 20:47:34 15° WSW 20:49:44 10° SSW
SPOT 5 4.0 20:47:47 24° E 20:48:42 26° ENE 20:52:36 10° NNE
Cosmos 2084 4.5 20:44:49 10° NW 20:48:43 41° WSW 20:51:53 15° S
Envisat 3.3 20:49:38 29° SE 20:51:48 46° ENE 20:56:39 10° N
Cosmos 1937 Rocket 3.5 20:49:05 10° NNW 20:54:24 85° WSW 20:58:05 20° SSE
Cosmos 1953 Rocket 3.9 20:50:19 10° N 20:54:37 45° E 20:55:42 38° ESE
H-2A R/B 2.9 20:55:01 30° ENE 20:55:12 30° ENE 20:58:51 10° N
Cosmos 2173 Rocket 3.9 20:49:05 10° S 20:55:26 79° E 21:01:46 10° N
USA 186 3.1 20:53:34 12° SSW 20:56:00 33° W 20:58:36 10° NNW
Cosmos 2297 Rocket 3.7 20:52:05 10° NW 20:57:07 33° WSW 21:02:06 10° SSW
Cosmos 990 Rocket 3.9 20:56:37 10° NNW 21:01:53 83° ENE 21:04:27 31° SSE
CZ-4 DEB 2.6 21:03:22 74° S 21:03:36 85° WSW 21:06:46 10° NNW
ALOS 3.9 20:59:28 10° SSW 21:03:39 32° W 21:07:51 10° NNW
Cosmos 2360 4.1 20:58:45 10° SSW 21:04:27 77° ESE 21:10:11 10° NNE
Cosmos 967 Rocket 4.4 20:59:09 10° NNW 21:05:31 78° ENE 21:08:26 34° SE
Cosmos 2227 4.1 21:04:26 10° NNW 21:10:12 76° ENE 21:12:24 39° SE
ERS-1 Rocket 2.9 21:08:47 30° SSE 21:11:19 89° WSW 21:16:22 10° NNW
OAO 2 Rocket 3.8 21:06:54 10° W 21:11:40 45° SSW 21:12:34 40° SSE
Meteor 1-21 4.2 21:06:36 10° N 21:12:26 82° E 21:15:23 31° SSE
Cosmos 1758 Rocket 3.4 21:08:35 10° N 21:12:53 61° E 21:13:13 59° ESE
YAOGAN 11 4.3 21:11:55 31° S 21:14:03 71° WSW 21:18:29 10° NNW
Cosmos 2100 Rocket 4.3 21:07:53 10° SSW 21:14:06 68° W 21:20:19 10° N
BREEZE-M DEB (TANK) 2.7 21:15:01 10° NW 21:17:23 45° NE 21:17:24 45° NE
Tiangong 1 2.6 21:19:39 10° WNW 21:21:38 31° WSW 21:21:38 31° WSW
Cosmos 1939 Rocket 3.1 21:23:17 55° SSW 21:24:03 72° W 21:28:13 10° NNW
Cosmos 836 Rocket 4.4 21:18:59 10° SSW 21:24:16 82° ESE 21:29:36 10° NNE
H-2A R/B 3.9 21:25:29 15° NE 21:25:29 15° NE 21:27:21 10° NNE
Cosmos 1743 4.1 21:20:49 10° SSW 21:24:30 40° W 21:28:13 10° N
Cosmos 1763 Rocket 4.0 21:19:52 10° SSW 21:24:53 59° WNW 21:29:54 10° N
deb Chang Zheng 4 3.4 21:22:17 10° NNE 21:26:45 76° ESE 21:26:46 76° ESE
Tsikada Rocket 4.0 21:22:36 10° N 21:28:59 62° E 21:30:24 50° SE
ARGOS 3.7 21:39:04 42° ENE 21:39:04 42° ENE 21:43:45 10° N
Cosmos 2058 Rocket 3.3 21:40:58 61° WSW 21:41:30 68° W 21:46:00 10° N
SL-16 R/B 2.0 21:41:42 49° SSW 21:43:17 83° ESE 21:48:59 10° NNE
Cosmos 1816 Rocket 4.5 21:37:00 10° N 21:43:20 63° E 21:43:53 61° ESE
SPOT 1/Viking Rocket 4.0 21:44:10 49° NE 21:44:10 49° NE 21:48:39 10° N
Cosmos 1125 Rocket 3.3 21:39:03 10° NNW 21:44:17 80° ENE 21:44:17 80° ENE
Cosmos 1725 Rocket 3.9 21:42:59 38° S 21:45:32 86° W 21:51:49 10° N
MetOp-B 3.9 21:46:30 80° ESE 21:46:42 82° ENE 21:52:05 10° NNW
Cosmos 2098 Rocket 4.1 21:43:33 19° SSW 21:48:31 71° W 21:54:05 10° N
ASTEX 1 3.6 21:46:23 10° N 21:51:21 70° W 21:51:52 64° WSW
Cosmos 1980 Rocket 4.0 21:49:05 10° WSW 21:54:03 30° WNW 21:59:03 10° N
Cosmos 2360 Rocket 4.2 21:58:32 15° NE 21:58:32 15° NE 21:59:33 10° NE
Cosmos 540 Rocket 3.9 21:55:49 51° NNE 21:55:49 51° NNE 21:59:39 10° NNE
Cosmos 2233 Rocket 3.8 22:06:51 85° ENE 22:06:51 85° ENE 22:13:01 10° N
Milstar 3 Cent rocket 4.5 21:57:37 10° W 22:15:51 41° SSW 22:18:32 38° S
Cosmos 2263 Rocket 2.6 22:13:54 10° NNW 22:18:16 55° N 22:18:16 55° N
Lacrosse 5 4.3 22:18:54 10° W 22:21:01 13° WSW 22:21:09 13° WSW
SPOT 5 4.3 22:27:02 33° W 22:27:02 33° W 22:30:56 10° NNW
Cosmos 2322 Rocket 3.4 22:25:05 18° WSW 22:28:44 39° WNW 22:33:59 10° N
H-2A R/B 4.4 22:32:09 19° WNW 22:32:09 19° WNW 22:34:19 10° NW
Terra 3.8 22:42:37 25° N 22:42:37 25° N 22:44:34 10° N
ATLAS CENTAUR R/B 4.2 23:02:48 67° E 23:02:48 67° E 23:21:11 10° NE
H-2A R/B 3.9 23:06:08 25° NNW 23:06:08 25° NNW 23:08:15 10° NNW
Cosmos 2278 Rocket 4.3 23:09:13 10° N 23:11:26 19° NNE 23:11:26 19° NNE
USA 215 4.0 23:24:24 48° NNW 23:24:24 48° NNW 23:29:01 10° NW
Cosmos 2360 Rocket 4.2 23:40:15 24° NNW 23:40:15 24° NNW 23:43:19 10° N
